This is the latest recevied weather packets stored in our database for station/object W1HS. If no packets are shown the sender has not sent any weather packets the latest 1 day(s).
| Time | Temp. | Humidity | Pressure | Rain* | Wind** | Luminosity | Snow |
|---|---|---|---|---|---|---|---|
| 1778005220 | 26.11° C | 35% | 985.2 hPa | 0 mm | 8.49 m/s, 248° | 237 W/m² | - |
| 1778004620 | 26.11° C | 37% | 985.6 hPa | 0 mm | 6.26 m/s, 225° | 366 W/m² | - |
| 1778004021 | 26.11° C | 36% | 985.7 hPa | 0 mm | 5.81 m/s, 248° | 1118 W/m² | - |
| 1778003420 | 25.56° C | 37% | 985.8 hPa | 0 mm | 5.81 m/s, 248° | 1099 W/m² | - |
| 1778002820 | 25.56° C | 39% | 985.9 hPa | 0 mm | 4.02 m/s, 203° | 302 W/m² | - |
| 1778002219 | 25° C | 41% | 986 hPa | 0 mm | 3.58 m/s, 180° | 1187 W/m² | - |
| 1778001688 | 25° C | 40% | 986.2 hPa | 0 mm | 2.24 m/s, 225° | 292 W/m² | - |
| 1778001140 | 25° C | 40% | 986.2 hPa | 0 mm | 3.58 m/s, 225° | 374 W/m² | - |
| 1778000540 | 25° C | 40% | 986.2 hPa | 0 mm | 3.58 m/s, 225° | 417 W/m² | - |
| 1777999939 | 25° C | 41% | 986.4 hPa | 0 mm | 3.58 m/s, 225° | 302 W/m² | - |
| 1777999341 | 24.44° C | 44% | 986.5 hPa | 0 mm | 3.58 m/s, 225° | 981 W/m² | - |
| 1777998738 | 24.44° C | 43% | 986.8 hPa | 0 mm | 4.02 m/s, 158° | 953 W/m² | - |
| 1777998139 | 23.89° C | 44% | 986.9 hPa | 0 mm | 4.47 m/s, 203° | 640 W/m² | - |
| 1777997539 | 23.33° C | 46% | 987.2 hPa | 0 mm | 4.92 m/s, 248° | 883 W/m² | - |
| 1777996940 | 23.33° C | 47% | 987.4 hPa | 0 mm | 2.24 m/s, 225° | 900 W/m² | - |
| 1777996338 | 22.22° C | 49% | 987.4 hPa | 0 mm | 2.68 m/s, 180° | 958 W/m² | - |
| 1777995739 | 22.22° C | 48% | 987.6 hPa | 0 mm | 2.24 m/s, 225° | 371 W/m² | - |
| 1777995139 | 22.22° C | 49% | 988 hPa | 0 mm | 3.13 m/s, 225° | 795 W/m² | - |
| 1777994547 | 22.22° C | 49% | 988.3 hPa | 0 mm | 2.24 m/s, 180° | 879 W/m² | - |
| 1777993939 | 21.67° C | 49% | 988.4 hPa | 0 mm | 4.47 m/s, 248° | 770 W/m² | - |
| 1777993341 | 21.11° C | 50% | 988.4 hPa | 0 mm | 4.02 m/s, 203° | 718 W/m² | - |
| 1777992739 | 20.56° C | 52% | 988.5 hPa | 0 mm | 4.02 m/s, 225° | 633 W/m² | - |
| 1777992140 | 20° C | 54% | 988.7 hPa | 0 mm | 2.24 m/s, 180° | 626 W/m² | - |
| 1777991542 | 20° C | 53% | 988.7 hPa | 0 mm | 3.13 m/s, 225° | 483 W/m² | - |
| 1777990939 | 19.44° C | 54% | 988.8 hPa | 0 mm | 4.02 m/s, 225° | 745 W/m² | - |
* Rain latest hour (hover to see other rain measurements)
** Current wind speed in m/s (hover to see current wind gust speed)